EW7554 Weather Reports


time (UTC)temp
C
wind
direction
speed
KPH
gust
KPH
rain 1hr
cm
rain 24hr
cm
rain mn
cm
humidity
%
barometer
mb
20260507224519 15 328 16.1 22.5 0.00 0.00 0.00 24 1011.0
20260507223012 16 341 4.8 20.9 0.00 0.00 0.00 25 1011.2
20260507221512 15 248 11.3 22.5 0.00 0.00 0.00 24 1011.1
20260507220009 15 293 8.0 24.1 0.00 0.00 0.00 24 1011.3
20260507214520 14 282 14.5 22.5 0.00 0.00 0.00 24 1011.5
20260507213006 15 279 9.7 24.1 0.00 0.00 0.00 24 1011.6
20260507211507 15 346 4.8 12.9 0.00 0.00 0.00 24 1011.6
20260507210002 14 283 8.0 19.3 0.00 0.00 0.00 26 1011.9
20260507204600 13 336 4.8 20.9 0.00 0.00 0.00 25 1012.0
20260507203059 13 311 11.3 24.1 0.00 0.00 0.00 26 1012.3
20260507201607 13 205 11.3 20.9 0.00 0.00 0.00 25 1012.4
20260507200101 13 288 9.7 22.5 0.00 0.00 0.00 27 1012.5
20260507194556 12 340 9.7 17.7 0.00 0.00 0.00 27 1012.7
20260507193057 13 336 9.7 19.3 0.00 0.00 0.00 26 1012.7
20260507191553 13 355 9.7 20.9 0.00 0.00 0.00 27 1012.9
20260507190051 13 319 6.4 16.1 0.00 0.00 0.00 28 1013.0
20260507184550 12 315 3.2 19.3 0.00 0.00 0.00 27 1013.0
20260507183047 12 321 6.4 14.5 0.00 0.00 0.00 28 1013.1
20260507181545 12 289 6.4 17.7 0.00 0.00 0.00 27 1013.2
20260507180048 11 301 12.9 22.5 0.00 0.00 0.00 27 1013.3
20260507174547 11 209 6.4 17.7 0.00 0.00 0.00 29 1013.4
20260507173044 11 288 3.2 16.1 0.00 0.00 0.00 30 1013.5
20260507171545 10 304 4.8 20.9 0.00 0.00 0.00 29 1013.7
20260507170034 11 355 3.2 17.7 0.00 0.00 0.00 32 1013.8
20260507164532 10 340 8.0 22.5 0.00 0.00 0.00 29 1014.0
20260507163027 10 350 4.8 16.1 0.00 0.00 0.00 31 1014.2
20260507161524 10 348 8.0 16.1 0.00 0.00 0.00 31 1014.2
20260507160023 10 331 9.7 16.1 0.00 0.00 0.00 34 1014.3
20260507154520 10 306 1.6 8.0 0.00 0.00 0.00 37 1014.4
20260507153013 9 338 0.0 12.9 0.00 0.00 0.00 37 1014.4
20260507151510 8 330 4.8 14.5 0.00 0.00 0.00 38 1014.6
20260507150006 8 252 1.6 11.3 0.00 0.00 0.00 37 1014.4
20260507144501 8 355 3.2 6.4 0.00 0.00 0.00 41 1014.6
20260507143058 8 294 3.2 8.0 0.00 0.00 0.00 41 1014.6
20260507141615 7 337 1.6 8.0 0.00 0.00 0.00 44 1014.7
20260507140049 7 221 1.6 8.0 0.00 0.00 0.00 45 1014.8
20260507134549 6 275 3.2 8.0 0.00 0.00 0.00 52 1014.7
20260507133042 6 296 1.6 4.8 0.00 0.00 0.00 57 1014.8
20260507131541 5 306 1.6 6.4 0.00 0.00 0.00 59 1014.9
20260507130033 5 259 1.6 4.8 0.00 0.00 0.00 66 1014.9
20260507124530 3 258 0.0 1.6 0.00 0.00 0.00 75 1015.0
20260507123029 2 258 0.0 3.2 0.00 0.00 0.00 78 1015.0
20260507121525 1 258 0.0 3.2 0.00 0.00 0.00 79 1015.0
20260507120020 1 258 0.0 3.2 0.00 0.00 0.00 78 1015.0
20260507114516 1 258 0.0 3.2 0.00 0.00 0.00 77 1015.0
20260507113014 0 258 0.0 1.6 0.00 0.00 0.00 78 1015.0
20260507111509 0 258 0.0 3.2 0.00 0.00 0.00 78 1015.0
20260507110005 1 258 0.0 3.2 0.00 0.00 0.00 79 1015.0
20260507104508 0 258 0.0 1.6 0.00 0.00 0.00 78 1015.0
20260507103004 0 258 0.0 3.2 0.00 0.00 0.00 79 1015.0
20260507101501 1 258 0.0 0.0 0.00 0.00 0.00 77 1015.0
20260507100100 1 258 1.6 3.2 0.00 0.00 0.00 77 1015.0
20260507094559 1 258 1.6 3.2 0.00 0.00 0.00 77 1015.0
20260507093100 1 257 1.6 4.8 0.00 0.00 0.00 75 1015.2
20260507091558 1 257 0.0 3.2 0.00 0.00 0.00 73 1015.2
20260507090053 1 257 0.0 3.2 0.00 0.00 0.00 71 1015.2
20260507084551 2 257 0.0 3.2 0.00 0.00 0.00 70 1015.1
20260507083050 2 257 1.6 4.8 0.00 0.00 0.00 70 1015.1
20260507081548 2 264 0.0 3.2 0.00 0.00 0.00 71 1015.2
20260507080046 2 264 0.0 4.8 0.00 0.00 0.00 70 1015.2
20260507074544 2 277 1.6 3.2 0.00 0.00 0.00 71 1015.3
20260507073042 2 277 1.6 4.8 0.00 0.00 0.00 72 1015.3
20260507071540 3 281 0.0 3.2 0.00 0.00 0.00 71 1015.5
20260507070037 3 292 1.6 3.2 0.00 0.00 0.00 67 1015.6
20260507064533 3 294 1.6 3.2 0.00 0.00 0.00 65 1015.7
20260507063035 3 294 1.6 3.2 0.00 0.00 0.00 63 1015.8
20260507061529 3 294 0.0 3.2 0.00 0.00 0.00 62 1016.0
20260507060038 4 294 0.0 3.2 0.00 0.00 0.00 60 1016.0
20260507054533 4 294 0.0 3.2 0.00 0.00 0.00 61 1016.1
20260507053024 4 294 1.6 3.2 0.00 0.00 0.00 60 1016.2
20260507051521 5 295 1.6 4.8 0.00 0.00 0.00 60 1016.2
20260507050019 5 298 0.0 4.8 0.00 0.00 0.00 59 1016.2
20260507044540 5 299 0.0 3.2 0.00 0.00 0.00 58 1016.4
20260507043018 5 299 0.0 1.6 0.00 0.00 0.00 60 1016.4
20260507041517 5 299 0.0 1.6 0.00 0.00 0.00 56 1016.5
20260507040016 5 299 0.0 1.6 0.00 0.00 0.00 55 1016.6
20260507034516 5 299 0.0 1.6 0.00 0.00 0.00 54 1016.6
20260507033016 5 299 0.0 1.6 0.00 0.00 0.00 54 1016.7
20260507031516 5 299 0.0 1.6 0.00 0.00 0.00 54 1016.8
20260507030017 5 299 0.0 1.6 0.00 0.00 0.00 53 1016.8
20260507024514 5 299 0.0 1.6 0.00 0.00 0.00 53 1016.9
20260507023013 5 299 0.0 3.2 0.00 0.00 0.00 52 1016.9
20260507021519 5 299 3.2 6.4 0.00 0.00 0.00 51 1016.9
20260507020013 5 290 1.6 6.4 0.00 0.00 0.00 51 1016.9
20260507014513 6 288 3.2 8.0 0.00 0.00 0.00 50 1016.8
20260507013012 6 270 1.6 11.3 0.00 0.00 0.00 49 1016.8
20260507011511 6 288 3.2 12.9 0.00 0.00 0.00 47 1016.9
20260507010011 7 302 6.4 17.7 0.00 0.00 0.00 46 1016.9
20260507004511 7 269 6.4 19.3 0.00 0.00 0.00 45 1017.0
20260507003017 7 240 4.8 24.1 0.00 0.00 0.00 44 1016.9
20260507001520 7 279 9.7 22.5 0.00 0.00 0.00 45 1017.1
20260507000012 7 254 6.4 19.3 0.00 0.00 0.00 46 1017.1
20260506234509 7 340 9.7 22.5 0.00 0.00 0.00 45 1017.1
20260506233007 7 288 11.3 19.3 0.00 0.00 0.00 45 1017.2
20260506231512 7 298 6.4 19.3 0.00 0.00 0.00 45 1017.2
20260506230006 7 312 6.4 24.1 0.00 0.00 0.00 46 1017.2